ELY315 LLBG-EGLL

Flight info

Callsign ELY315
Flight time N/A
Altitude 36000
Route SUVAS N128 TEZAK L324 SAFTA DCT TOMBI UA16 AYT UN135 IMR UN127 RIKSO DCT DISOR DCT LONTA UL608 DOLEV DCT GORPA/N0480F380 DCT MODSA DCT MAH DCT NOMBO DCT VIBOM DCT ULNOK DCT ADENU L608 LIRSU DCT ARCKY DCT SPI DCT DENUT L608 LOGAN
Aircraft B772/H-SDE2E3FGHIJ5LORVWXY/LB1D1

Departure

Time 2026-04-30 08:11
Airport Ben Gurion International Airport (LLBG)

Arrival

Time N/A
Airport London Heathrow Airport (EGLL)
Time Latitude Longitude Altitude Speed Heading
2026-04-30 07:44 32.00640 34.87216 119 ft 0 kts 228°
2026-04-30 07:44 32.00643 34.87219 119 ft 0 kts 228°
2026-04-30 08:00 32.00648 34.87227 124 ft 4 kts 228°
2026-04-30 08:00 32.00666 34.87251 119 ft 4 kts 229°
2026-04-30 08:00 32.00684 34.87275 119 ft 4 kts 229°
2026-04-30 08:00 32.00701 34.87295 119 ft 4 kts 208°
2026-04-30 08:01 32.00722 34.87300 119 ft 4 kts 142°
2026-04-30 08:01 32.00735 34.87276 119 ft 4 kts 103°
2026-04-30 08:01 32.00737 34.87245 119 ft 4 kts 78°
2026-04-30 08:01 32.00730 34.87215 119 ft 4 kts 73°
2026-04-30 08:02 32.00727 34.87202 119 ft 0 kts 77°
2026-04-30 08:04 32.00728 34.87205 119 ft 3 kts 77°
2026-04-30 08:04 32.00743 34.87275 119 ft 10 kts 72°
2026-04-30 08:04 32.00793 34.87338 120 ft 12 kts 34°
2026-04-30 08:04 32.00815 34.87421 122 ft 13 kts 113°
2026-04-30 08:05 32.00764 34.87520 120 ft 15 kts 122°
2026-04-30 08:05 32.00701 34.87641 121 ft 18 kts 122°
2026-04-30 08:05 32.00636 34.87765 121 ft 18 kts 121°
2026-04-30 08:05 32.00589 34.87887 122 ft 15 kts 83°
2026-04-30 08:06 32.00661 34.87971 120 ft 15 kts 32°
2026-04-30 08:06 32.00748 34.88034 120 ft 15 kts 32°
2026-04-30 08:06 32.00848 34.88107 121 ft 20 kts 32°
2026-04-30 08:06 32.00966 34.88193 121 ft 20 kts 32°
2026-04-30 08:07 32.01082 34.88277 121 ft 20 kts 31°
2026-04-30 08:07 32.01201 34.88362 121 ft 20 kts 31°
2026-04-30 08:07 32.01316 34.88464 122 ft 22 kts 43°
2026-04-30 08:07 32.01412 34.88604 120 ft 22 kts 57°
2026-04-30 08:08 32.01478 34.88767 120 ft 22 kts 70°
2026-04-30 08:08 32.01512 34.88944 121 ft 22 kts 79°
2026-04-30 08:08 32.01539 34.89122 123 ft 22 kts 79°
2026-04-30 08:08 32.01572 34.89249 119 ft 13 kts 42°
2026-04-30 08:09 32.01660 34.89257 120 ft 13 kts 350°
2026-04-30 08:09 32.01739 34.89233 117 ft 11 kts 323°
2026-04-30 08:09 32.01754 34.89158 121 ft 0 kts 263°
2026-04-30 08:09 32.01754 34.89155 121 ft 4 kts 263°
2026-04-30 08:10 32.01723 34.88932 126 ft 60 kts 260°
2026-04-30 08:10 32.01605 34.88171 123 ft 127 kts 260°
2026-04-30 08:10 32.01415 34.86929 151 ft 180 kts 260°
2026-04-30 08:10 32.01188 34.85412 697 ft 196 kts 263°
2026-04-30 08:11 32.00908 34.83810 1500 ft 201 kts 257°
2026-04-30 08:11 32.00545 34.82187 2202 ft 210 kts 255°
2026-04-30 08:11 32.00144 34.80479 2710 ft 221 kts 253°
2026-04-30 08:11 31.99726 34.78687 3240 ft 234 kts 253°
2026-04-30 08:12 31.99317 34.76774 3798 ft 245 kts 254°
2026-04-30 08:12 31.99119 34.74818 4580 ft 244 kts 273°
2026-04-30 08:12 31.99572 34.72820 4984 ft 265 kts 291°
2026-04-30 08:12 32.00364 34.70792 5460 ft 280 kts 293°
2026-04-30 08:13 32.01151 34.68662 6084 ft 289 kts 290°
2026-04-30 08:13 32.01869 34.66413 6916 ft 293 kts 288°
2026-04-30 08:13 32.02568 34.64166 7688 ft 292 kts 289°
2026-04-30 08:13 32.03224 34.61917 8342 ft 292 kts 285°
2026-04-30 08:14 32.03814 34.59609 9068 ft 297 kts 283°
2026-04-30 08:14 32.04332 34.57222 9767 ft 305 kts 282°
2026-04-30 08:14 32.04830 34.54754 10422 ft 313 kts 281°
2026-04-30 08:14 32.05357 34.52179 10769 ft 334 kts 282°
2026-04-30 08:15 32.05946 34.49412 10964 ft 360 kts 283°
2026-04-30 08:15 32.06584 34.46479 11480 ft 374 kts 283°
2026-04-30 08:15 32.07238 34.43506 12244 ft 381 kts 284°
2026-04-30 08:15 32.07909 34.40465 13209 ft 384 kts 284°
2026-04-30 08:16 32.08586 34.37398 14203 ft 386 kts 284°
2026-04-30 08:16 32.09262 34.34327 15125 ft 388 kts 284°
2026-04-30 08:16 32.09943 34.31226 16028 ft 392 kts 284°
2026-04-30 08:16 32.10630 34.28098 16891 ft 396 kts 284°
2026-04-30 08:17 32.11321 34.24940 17770 ft 400 kts 284°
2026-04-30 08:17 32.12020 34.21745 18631 ft 404 kts 284°
2026-04-30 08:17 32.12725 34.18513 19456 ft 407 kts 284°
2026-04-30 08:17 32.13422 34.15318 20306 ft 408 kts 284°
2026-04-30 08:18 32.14132 34.12058 21182 ft 410 kts 284°
2026-04-30 08:18 32.14841 34.08797 22012 ft 412 kts 284°
2026-04-30 08:18 32.15552 34.05524 22796 ft 414 kts 284°
2026-04-30 08:18 32.16371 34.02236 23528 ft 417 kts 290°
2026-04-30 08:19 32.17517 33.99081 24131 ft 421 kts 295°
2026-04-30 08:19 32.18898 33.96020 24709 ft 424 kts 300°
2026-04-30 08:19 32.20541 33.93109 25259 ft 427 kts 304°
2026-04-30 08:19 32.22276 33.90251 25789 ft 430 kts 304°
2026-04-30 08:20 32.24034 33.87373 26312 ft 433 kts 304°
2026-04-30 08:20 32.25806 33.84470 26811 ft 435 kts 304°
2026-04-30 08:20 32.27581 33.81550 27239 ft 439 kts 304°
2026-04-30 08:20 32.29343 33.78637 27632 ft 443 kts 304°
2026-04-30 08:21 32.31141 33.75653 28070 ft 446 kts 304°
2026-04-30 08:21 32.32933 33.72671 28525 ft 447 kts 303°
2026-04-30 08:21 32.34746 33.69649 28954 ft 449 kts 303°
2026-04-30 08:21 32.36554 33.66633 29337 ft 451 kts 303°
2026-04-30 08:22 32.38371 33.63597 29719 ft 452 kts 303°
2026-04-30 08:22 32.40185 33.60563 30038 ft 454 kts 303°
2026-04-30 08:22 32.42004 33.57520 30381 ft 454 kts 303°
2026-04-30 08:22 32.43827 33.54469 30754 ft 452 kts 303°
2026-04-30 08:23 32.45639 33.51433 31171 ft 450 kts 303°
2026-04-30 08:23 32.47443 33.48408 31569 ft 448 kts 303°
2026-04-30 08:23 32.49228 33.45414 31929 ft 447 kts 303°
2026-04-30 08:23 32.51025 33.42396 32290 ft 446 kts 303°
2026-04-30 08:24 32.52813 33.39390 32648 ft 445 kts 303°
2026-04-30 08:24 32.54596 33.36390 33018 ft 444 kts 303°
2026-04-30 08:24 32.56363 33.33416 33389 ft 442 kts 303°
2026-04-30 08:24 32.58136 33.30429 33767 ft 441 kts 303°
2026-04-30 08:25 32.59875 33.27495 34131 ft 440 kts 303°
2026-04-30 08:25 32.61630 33.24534 34432 ft 439 kts 303°
2026-04-30 08:25 32.63387 33.21566 34697 ft 439 kts 303°
2026-04-30 08:25 32.65146 33.18593 34969 ft 439 kts 303°
2026-04-30 08:26 32.66903 33.15621 35258 ft 439 kts 303°
2026-04-30 08:26 32.68653 33.12659 35538 ft 439 kts 302°
2026-04-30 08:26 32.70404 33.09692 35801 ft 438 kts 302°
2026-04-30 08:26 32.72161 33.06713 36033 ft 440 kts 302°
2026-04-30 08:27 32.73924 33.03719 36070 ft 443 kts 302°
2026-04-30 08:27 32.77445 32.97738 36086 ft 440 kts 302°
2026-04-30 08:28 32.80924 32.91820 36087 ft 438 kts 302°
2026-04-30 08:28 32.84405 32.85888 36081 ft 437 kts 302°
2026-04-30 08:29 32.87885 32.79946 36084 ft 438 kts 302°
2026-04-30 08:29 32.91346 32.74028 36084 ft 439 kts 302°
2026-04-30 08:30 32.94834 32.68055 36086 ft 439 kts 302°
2026-04-30 08:30 32.98324 32.62068 36090 ft 440 kts 302°
2026-04-30 08:31 33.01814 32.56073 36090 ft 440 kts 302°
2026-04-30 08:31 33.05300 32.50074 36086 ft 440 kts 302°
2026-04-30 08:32 33.08195 32.45086 36079 ft 440 kts 302°
2026-04-30 08:32 33.11689 32.39055 36085 ft 440 kts 302°
2026-04-30 08:33 33.15161 32.33054 36089 ft 440 kts 302°
2026-04-30 08:33 33.18637 32.27035 36091 ft 440 kts 302°
2026-04-30 08:34 33.22086 32.21053 36083 ft 440 kts 302°
2026-04-30 08:34 33.25550 32.15035 36080 ft 439 kts 302°
2026-04-30 08:35 33.29010 32.09014 36081 ft 439 kts 302°
2026-04-30 08:35 33.32463 32.02996 36081 ft 440 kts 302°
2026-04-30 08:36 33.35924 31.96953 36074 ft 440 kts 302°
2026-04-30 08:36 33.39383 31.90905 36079 ft 440 kts 302°
2026-04-30 08:37 33.42833 31.84862 36075 ft 440 kts 302°
2026-04-30 08:37 33.47002 31.79612 36078 ft 446 kts 321°
2026-04-30 08:38 33.52553 31.76183 36074 ft 457 kts 338°
2026-04-30 08:38 33.58694 31.74073 36092 ft 459 kts 339°
2026-04-30 08:39 33.64841 31.71941 36081 ft 459 kts 339°
2026-04-30 08:39 33.70949 31.69742 36073 ft 459 kts 338°
2026-04-30 08:40 33.77043 31.67529 36078 ft 458 kts 338°
2026-04-30 08:40 33.83141 31.65314 36078 ft 459 kts 339°
2026-04-30 08:41 33.89264 31.63079 36077 ft 459 kts 338°
2026-04-30 08:41 33.95385 31.60839 36076 ft 459 kts 338°
2026-04-30 08:42 34.01502 31.58598 36078 ft 459 kts 338°
2026-04-30 08:42 34.07595 31.56363 36076 ft 460 kts 338°
2026-04-30 08:43 34.13713 31.54115 36076 ft 460 kts 338°
2026-04-30 08:43 34.19830 31.51865 36078 ft 459 kts 338°
2026-04-30 08:44 34.25953 31.49609 36075 ft 459 kts 338°
2026-04-30 08:44 34.32062 31.47354 36089 ft 459 kts 339°
2026-04-30 08:45 34.38201 31.45084 36081 ft 460 kts 339°
2026-04-30 08:45 34.44292 31.42830 36075 ft 461 kts 339°
2026-04-30 08:46 34.50428 31.40555 36070 ft 461 kts 339°
2026-04-30 08:46 34.56577 31.38272 36084 ft 462 kts 339°
2026-04-30 08:47 34.62722 31.35986 36076 ft 463 kts 339°
2026-04-30 08:47 34.68891 31.33689 36075 ft 463 kts 339°
2026-04-30 08:48 34.75057 31.31389 36076 ft 463 kts 339°
2026-04-30 08:48 34.81212 31.29090 36081 ft 464 kts 339°
2026-04-30 08:49 34.87358 31.26789 36074 ft 465 kts 339°
2026-04-30 08:49 34.93541 31.24472 36074 ft 465 kts 339°
2026-04-30 08:50 34.99751 31.22141 36072 ft 465 kts 339°
2026-04-30 08:50 35.05933 31.19817 36081 ft 465 kts 340°
2026-04-30 08:51 35.12147 31.17476 36071 ft 466 kts 340°
2026-04-30 08:51 35.18344 31.15139 36071 ft 466 kts 340°
2026-04-30 08:52 35.24506 31.12812 36072 ft 467 kts 340°
2026-04-30 08:52 35.30710 31.10464 36078 ft 467 kts 340°
2026-04-30 08:53 35.36919 31.08110 36071 ft 467 kts 340°
2026-04-30 08:53 35.43139 31.05749 36068 ft 467 kts 340°
2026-04-30 08:54 35.49350 31.03388 36068 ft 467 kts 340°
2026-04-30 08:54 35.55535 31.01032 36079 ft 468 kts 340°
2026-04-30 08:55 35.61760 30.98657 36070 ft 468 kts 340°
2026-04-30 08:55 35.67983 30.96279 36071 ft 468 kts 340°
2026-04-30 08:56 35.74224 30.93892 36070 ft 468 kts 340°
2026-04-30 08:56 35.80397 30.91525 36072 ft 468 kts 340°
2026-04-30 08:57 35.86623 30.89134 36067 ft 468 kts 340°
2026-04-30 08:57 35.92841 30.86742 36066 ft 468 kts 340°
2026-04-30 08:58 35.99059 30.84347 36065 ft 468 kts 340°
2026-04-30 08:58 36.05423 30.82502 36075 ft 472 kts 349°
2026-04-30 08:59 36.12009 30.82042 36052 ft 476 kts 356°
2026-04-30 08:59 36.18637 30.81908 36061 ft 476 kts 356°
2026-04-30 09:00 36.25265 30.81728 36069 ft 476 kts 355°
2026-04-30 09:00 36.31888 30.81514 36060 ft 476 kts 355°
2026-04-30 09:01 36.38480 30.81300 36058 ft 476 kts 355°
2026-04-30 09:01 36.45126 30.81081 36053 ft 476 kts 355°
2026-04-30 09:02 36.55061 30.80725 36052 ft 476 kts 355°
2026-04-30 09:02 36.61688 30.80487 36050 ft 476 kts 355°
2026-04-30 09:03 36.68314 30.80251 36055 ft 476 kts 355°
2026-04-30 09:03 36.74948 30.80014 36048 ft 476 kts 355°
2026-04-30 09:04 36.81576 30.79777 36050 ft 476 kts 355°
2026-04-30 09:04 36.88137 30.79108 36065 ft 467 kts 339°
2026-04-30 09:05 36.91050 30.77407 36024 ft 462 kts 322°
2026-04-30 09:05 36.93438 30.74839 36059 ft 459 kts 310°
2026-04-30 09:05 36.95334 30.71647 36063 ft 456 kts 297°
2026-04-30 09:05 36.96748 30.68110 36059 ft 456 kts 294°
2026-04-30 09:06 36.99451 30.60897 36059 ft 459 kts 294°
2026-04-30 09:06 37.02199 30.53661 36056 ft 460 kts 294°
2026-04-30 09:07 37.04977 30.46496 36059 ft 460 kts 295°
2026-04-30 09:07 37.07773 30.39320 36079 ft 457 kts 295°
2026-04-30 09:08 37.10559 30.32153 36050 ft 456 kts 295°
2026-04-30 09:08 37.13325 30.25013 36055 ft 455 kts 294°
2026-04-30 09:09 37.16088 30.17862 36070 ft 454 kts 294°
2026-04-30 09:09 37.18822 30.10771 36080 ft 454 kts 294°
2026-04-30 09:10 37.21566 30.03638 36052 ft 454 kts 294°
2026-04-30 09:10 37.24342 29.96517 36073 ft 454 kts 296°
2026-04-30 09:11 37.27256 29.89474 36075 ft 454 kts 296°
2026-04-30 09:11 37.30165 29.82433 36079 ft 454 kts 296°
2026-04-30 09:12 37.33030 29.75422 36060 ft 454 kts 296°
2026-04-30 09:12 37.35867 29.68349 36077 ft 453 kts 295°
2026-04-30 09:13 37.38601 29.61204 36066 ft 453 kts 294°
2026-04-30 09:13 37.41328 29.54066 36056 ft 453 kts 294°
2026-04-30 09:14 37.44070 29.46920 36080 ft 452 kts 295°
2026-04-30 09:14 37.46788 29.39794 36065 ft 451 kts 294°
2026-04-30 09:15 37.49434 29.32639 36062 ft 451 kts 294°
2026-04-30 09:15 37.52047 29.25515 36075 ft 450 kts 294°
2026-04-30 09:16 37.54679 29.18347 36072 ft 450 kts 294°
2026-04-30 09:16 37.57306 29.11191 36072 ft 450 kts 294°
2026-04-30 09:17 37.59935 29.04015 36069 ft 450 kts 294°
2026-04-30 09:17 37.62110 28.98066 36063 ft 449 kts 294°
2026-04-30 09:18 37.65148 28.89733 36062 ft 449 kts 294°
2026-04-30 09:18 37.67332 28.83730 36064 ft 449 kts 294°
2026-04-30 09:19 37.69917 28.76608 36057 ft 448 kts 294°
2026-04-30 09:19 37.72514 28.69437 36055 ft 448 kts 293°
2026-04-30 09:20 37.75069 28.62254 36063 ft 448 kts 293°
2026-04-30 09:20 37.77607 28.55059 36049 ft 447 kts 293°
2026-04-30 09:21 37.80124 28.47910 36055 ft 446 kts 293°
2026-04-30 09:21 37.82650 28.40735 36062 ft 447 kts 293°
2026-04-30 09:22 37.85174 28.33553 36056 ft 447 kts 293°
2026-04-30 09:22 37.87688 28.26376 36052 ft 445 kts 293°
2026-04-30 09:23 37.90196 28.19202 36047 ft 445 kts 293°
2026-04-30 09:23 37.92688 28.12053 36035 ft 444 kts 292°
2026-04-30 09:24 37.95186 28.04872 36044 ft 445 kts 292°
2026-04-30 09:24 37.97661 27.97740 36050 ft 445 kts 292°
2026-04-30 09:25 38.00155 27.90571 36049 ft 444 kts 294°
2026-04-30 09:25 38.03039 27.83635 36047 ft 444 kts 296°
2026-04-30 09:26 38.05670 27.76545 36053 ft 443 kts 292°
2026-04-30 09:26 38.08088 27.69357 36045 ft 444 kts 292°
2026-04-30 09:27 38.10545 27.62156 36040 ft 444 kts 292°
2026-04-30 09:27 38.13012 27.55016 36036 ft 444 kts 292°
2026-04-30 09:28 38.15494 27.47828 36040 ft 444 kts 292°
2026-04-30 09:28 38.17969 27.40650 36034 ft 443 kts 292°
2026-04-30 09:29 38.20455 27.33464 36032 ft 444 kts 292°
2026-04-30 09:29 38.22933 27.26280 36033 ft 444 kts 292°
2026-04-30 09:30 38.25407 27.19084 36032 ft 443 kts 292°
2026-04-30 09:30 38.27873 27.11896 36054 ft 443 kts 292°
2026-04-30 09:31 38.30422 27.04760 36020 ft 443 kts 298°
2026-04-30 09:31 38.34012 26.98424 36032 ft 445 kts 309°
2026-04-30 09:32 38.38536 26.92985 36028 ft 448 kts 316°
2026-04-30 09:32 38.43298 26.87822 36029 ft 448 kts 316°
2026-04-30 09:33 38.48031 26.82646 36043 ft 448 kts 316°
2026-04-30 09:33 38.52745 26.77432 36039 ft 448 kts 316°
2026-04-30 09:34 38.57442 26.72210 36041 ft 447 kts 316°
2026-04-30 09:34 38.62104 26.67018 36055 ft 448 kts 316°
2026-04-30 09:35 38.66808 26.61771 36052 ft 448 kts 316°
2026-04-30 09:35 38.71511 26.56516 36048 ft 448 kts 316°
2026-04-30 09:36 38.76208 26.51259 36053 ft 448 kts 316°
2026-04-30 09:36 38.80902 26.45996 36060 ft 448 kts 315°
2026-04-30 09:37 38.85347 26.40488 36064 ft 445 kts 309°
2026-04-30 09:37 38.89458 26.34524 36067 ft 446 kts 308°
2026-04-30 09:38 38.93564 26.28555 36068 ft 446 kts 309°
2026-04-30 09:38 38.97686 26.22583 36048 ft 446 kts 309°
2026-04-30 09:39 39.01812 26.16611 36049 ft 446 kts 309°
2026-04-30 09:39 39.05936 26.10635 36042 ft 446 kts 309°
2026-04-30 09:40 39.10048 26.04665 36064 ft 446 kts 309°